owner,sensor,date,latitude,longitude,vertical_datum,direction_of_sea_water_velocity,sea_water_speed,upward_sea_water_velocity,qcFlag 
TABS,ioos:station:wmo:42050:1,2011-12-01T00:00:00Z,28.8425,-94.2433,2.0,57.71370766,9.510415343,-99999.0,'11133222,11111222,99999999' 
TABS,ioos:station:wmo:42050:1,2011-12-01T00:30:00Z,28.8425,-94.2433,2.0,57.83331211,10.53748072,-99999.0,'11111222,11111222,99999999' 
TABS,ioos:station:wmo:42050:1,2011-12-01T01:00:00Z,28.8425,-94.2433,2.0,80.25360676,10.27835104,-99999.0,'11111222,11111222,99999999' 
TABS,ioos:station:wmo:42050:1,2011-12-01T01:30:00Z,28.8425,-94.2433,2.0,78.56442078,9.835247836,-99999.0,'11133222,11111222,99999999' 
TABS,ioos:station:wmo:42050:1,2011-12-01T02:00:00Z,28.8425,-94.2433,2.0,67.05832917,10.54401252,-99999.0,'11111222,11111222,99999999' 
TABS,ioos:station:wmo:42050:1,2011-12-01T02:30:00Z,28.8425,-94.2433,2.0,83.08731777,11.71516112,-99999.0,'11111222,11111222,99999999' 
TABS,ioos:station:wmo:42050:1,2011-12-01T03:00:00Z,28.8425,-94.2433,2.0,87.98849196,10.25632,-99999.0,'11111222,11111222,99999999' 
TABS,ioos:station:wmo:42050:1,2011-12-01T03:30:00Z,28.8425,-94.2433,2.0,78.1830661,8.643176499,-99999.0,'11133222,11111222,99999999' 
TABS,ioos:station:wmo:42050:1,2011-12-01T04:00:00Z,28.8425,-94.2433,2.0,83.73652403,8.249242389,-99999.0,'11133222,11111222,99999999' 
TABS,ioos:station:wmo:42050:1,2011-12-01T04:30:00Z,28.8425,-94.2433,2.0,96.61834543,8.416085789,-99999.0,'11133222,11111222,99999999' 
TABS,ioos:station:wmo:42050:1,2011-12-01T05:00:00Z,28.8425,-94.2433,2.0,97.19550652,8.063504201,-99999.0,'11133222,11111222,99999999' 
TABS,ioos:station:wmo:42050:1,2011-12-01T05:30:00Z,28.8425,-94.2433,2.0,94.7513142,7.726551624,-99999.0,'11133222,11111222,99999999' 
TABS,ioos:station:wmo:42050:1,2011-12-01T06:00:00Z,28.8425,-94.2433,2.0,84.42093975,6.068747812,-99999.0,'11133222,11111222,99999999' 
TABS,ioos:station:wmo:42050:1,2011-12-01T06:30:00Z,28.8425,-94.2433,2.0,94.41169612,6.760029586,-99999.0,'11133222,11111222,99999999' 
TABS,ioos:station:wmo:42050:1,2011-12-01T07:00:00Z,28.8425,-94.2433,2.0,97.54770812,8.069919454,-99999.0,'11133222,11111222,99999999' 
TABS,ioos:station:wmo:42050:1,2011-12-01T07:30:00Z,28.8425,-94.2433,2.0,71.94868691,5.195738639,-99999.0,'11133222,11111222,99999999' 
TABS,ioos:station:wmo:42050:1,2011-12-01T08:00:00Z,28.8425,-94.2433,2.0,68.2141268,6.870727763,-99999.0,'11133222,11111222,99999999' 
TABS,ioos:station:wmo:42050:1,2011-12-01T08:30:00Z,28.8425,-94.2433,2.0,55.22604425,6.890609552,-99999.0,'11133222,11111222,99999999' 
TABS,ioos:station:wmo:42050:1,2011-12-01T09:00:00Z,28.8425,-94.2433,2.0,65.53281462,6.108559568,-99999.0,'11133222,11111222,99999999' 
TABS,ioos:station:wmo:42050:1,2011-12-01T09:30:00Z,28.8425,-94.2433,2.0,58.09499903,6.054717169,-99999.0,'11133222,11111222,99999999' 
TABS,ioos:station:wmo:42050:1,2011-12-01T10:00:00Z,28.8425,-94.2433,2.0,73.18902039,4.909826881,-99999.0,'11133222,11111222,99999999' 
TABS,ioos:station:wmo:42050:1,2011-12-01T10:30:00Z,28.8425,-94.2433,2.0,65.23663906,6.827854714,-99999.0,'11133222,11111222,99999999' 
TABS,ioos:station:wmo:42050:1,2011-12-01T11:00:00Z,28.8425,-94.2433,2.0,52.73612009,8.142192579,-99999.0,'11133222,11111222,99999999' 
TABS,ioos:station:wmo:42050:1,2011-12-01T11:30:00Z,28.8425,-94.2433,2.0,17.4999261,4.456242812,-99999.0,'11133222,11111222,99999999' 
TABS,ioos:station:wmo:42050:1,2011-12-01T12:00:00Z,28.8425,-94.2433,2.0,35.61861701,3.296786314,-99999.0,'11133222,11111222,99999999' 
TABS,ioos:station:wmo:42050:1,2011-12-01T12:30:00Z,28.8425,-94.2433,2.0,18.37166587,2.855538478,-99999.0,'11133222,11111222,99999999' 
TABS,ioos:station:wmo:42050:1,2011-12-01T13:00:00Z,28.8425,-94.2433,2.0,57.46880434,6.582864118,-99999.0,'11133222,11111222,99999999' 
TABS,ioos:station:wmo:42050:1,2011-12-01T13:30:00Z,28.8425,-94.2433,2.0,327.1717454,0.368917335,-99999.0,'11133222,11111222,99999999' 
TABS,ioos:station:wmo:42050:1,2011-12-01T14:00:00Z,28.8425,-94.2433,2.0,141.1371364,1.32280006,-99999.0,'11133222,11111222,99999999' 
TABS,ioos:station:wmo:42050:1,2011-12-01T14:30:00Z,28.8425,-94.2433,2.0,123.1953205,5.461226968,-99999.0,'11133222,11111222,99999999' 
TABS,ioos:station:wmo:42050:1,2011-12-01T15:00:00Z,28.8425,-94.2433,2.0,120.0284512,3.257192042,-99999.0,'11133222,11111222,99999999' 
TABS,ioos:station:wmo:42050:1,2011-12-01T15:30:00Z,28.8425,-94.2433,2.0,88.15239405,1.240644994,-99999.0,'11133222,11111222,99999999' 
TABS,ioos:station:wmo:42050:1,2011-12-01T16:00:00Z,28.8425,-94.2433,2.0,87.09618793,1.381774222,-99999.0,'11133222,11111222,99999999' 
TABS,ioos:station:wmo:42050:1,2011-12-01T16:30:00Z,28.8425,-94.2433,2.0,225.5559352,1.456708619,-99999.0,'11133222,11111222,99999999' 
TABS,ioos:station:wmo:42050:1,2011-12-01T17:00:00Z,28.8425,-94.2433,2.0,223.4214354,4.364504554,-99999.0,'11133222,11111222,99999999' 
TABS,ioos:station:wmo:42050:1,2011-12-01T17:30:00Z,28.8425,-94.2433,2.0,239.1175708,4.812255189,-99999.0,'11133222,11111222,99999999' 
TABS,ioos:station:wmo:42050:1,2011-12-01T18:00:00Z,28.8425,-94.2433,2.0,226.4684816,2.206898276,-99999.0,'11133222,11111222,99999999' 
TABS,ioos:station:wmo:42050:1,2011-12-01T18:30:00Z,28.8425,-94.2433,2.0,335.9596471,2.23376364,-99999.0,'11133222,11111222,99999999' 
TABS,ioos:station:wmo:42050:1,2011-12-01T19:00:00Z,28.8425,-94.2433,2.0,298.3748772,3.682404106,-99999.0,'11133222,11111222,99999999' 
TABS,ioos:station:wmo:42050:1,2011-12-01T19:30:00Z,28.8425,-94.2433,2.0,315.2811744,2.885030329,-99999.0,'11133222,11111222,99999999' 
TABS,ioos:station:wmo:42050:1,2011-12-01T20:00:00Z,28.8425,-94.2433,2.0,318.6171088,4.371555787,-99999.0,'11133222,11111222,99999999' 
TABS,ioos:station:wmo:42050:1,2011-12-01T20:30:00Z,28.8425,-94.2433,2.0,332.453969,6.789698079,-99999.0,'11133222,11111222,99999999' 
TABS,ioos:station:wmo:42050:1,2011-12-01T21:00:00Z,28.8425,-94.2433,2.0,327.4405383,8.435857988,-99999.0,'11133222,11111222,99999999' 
TABS,ioos:station:wmo:42050:1,2011-12-01T21:30:00Z,28.8425,-94.2433,2.0,346.9855801,8.570145856,-99999.0,'11133222,11111222,99999999' 
TABS,ioos:station:wmo:42050:1,2011-12-01T22:00:00Z,28.8425,-94.2433,2.0,349.1501312,6.109214352,-99999.0,'11133222,11111222,99999999' 
TABS,ioos:station:wmo:42050:1,2011-12-01T22:30:00Z,28.8425,-94.2433,2.0,317.9594887,7.944331312,-99999.0,'11133222,11111222,99999999' 
TABS,ioos:station:wmo:42050:1,2011-12-01T23:00:00Z,28.8425,-94.2433,2.0,308.1826861,7.684015877,-99999.0,'11133222,11111222,99999999' 
TABS,ioos:station:wmo:42050:1,2011-12-01T23:30:00Z,28.8425,-94.2433,2.0,343.9541389,7.814454556,-99999.0,'11133222,11111222,99999999' 
TABS,ioos:station:wmo:42050:1,2011-12-02T00:00:00Z,28.8425,-94.2433,2.0,350.8234551,7.587107486,-99999.0,'11133222,11111222,99999999' 
TABS,ioos:station:wmo:42050:1,2011-12-02T00:30:00Z,28.8425,-94.2433,2.0,347.8520135,8.981119084,-99999.0,'11133222,11111222,99999999' 
TABS,ioos:station:wmo:42050:1,2011-12-02T01:00:00Z,28.8425,-94.2433,2.0,331.7800802,4.335308524,-99999.0,'11133222,11111222,99999999' 
TABS,ioos:station:wmo:42050:1,2011-12-02T01:30:00Z,28.8425,-94.2433,2.0,332.1126132,3.100016129,-99999.0,'11133222,11111222,99999999' 
TABS,ioos:station:wmo:42050:1,2011-12-02T02:00:00Z,28.8425,-94.2433,2.0,336.8724532,4.25170554,-99999.0,'11133222,11111222,99999999' 
TABS,ioos:station:wmo:42050:1,2011-12-02T02:30:00Z,28.8425,-94.2433,2.0,299.2777724,3.496655545,-99999.0,'11133222,11111222,99999999' 
TABS,ioos:station:wmo:42050:1,2011-12-02T03:00:00Z,28.8425,-94.2433,2.0,246.2351118,5.58342189,-99999.0,'11133222,11111222,99999999' 
TABS,ioos:station:wmo:42050:1,2011-12-02T03:30:00Z,28.8425,-94.2433,2.0,239.5885689,9.06755204,-99999.0,'11133222,11111222,99999999' 
TABS,ioos:station:wmo:42050:1,2011-12-02T04:00:00Z,28.8425,-94.2433,2.0,249.5745058,4.097621261,-99999.0,'11133222,11111222,99999999' 
TABS,ioos:station:wmo:42050:1,2011-12-02T04:30:00Z,28.8425,-94.2433,2.0,220.4574814,8.660975696,-99999.0,'11133222,11111222,99999999' 
TABS,ioos:station:wmo:42050:1,2011-12-02T05:00:00Z,28.8425,-94.2433,2.0,206.9519054,8.604585987,-99999.0,'11133222,11111222,99999999' 
TABS,ioos:station:wmo:42050:1,2011-12-02T05:30:00Z,28.8425,-94.2433,2.0,216.290985,10.69454534,-99999.0,'11111222,11111222,99999999' 
TABS,ioos:station:wmo:42050:1,2011-12-02T06:00:00Z,28.8425,-94.2433,2.0,208.9112157,9.721630522,-99999.0,'11133222,11111222,99999999' 
TABS,ioos:station:wmo:42050:1,2011-12-02T06:30:00Z,28.8425,-94.2433,2.0,206.4471286,10.88967401,-99999.0,'11111222,11111222,99999999' 
TABS,ioos:station:wmo:42050:1,2011-12-02T07:00:00Z,28.8425,-94.2433,2.0,217.7608259,16.32997551,-99999.0,'11111222,11111222,99999999' 
TABS,ioos:station:wmo:42050:1,2011-12-02T07:30:00Z,28.8425,-94.2433,2.0,211.1047261,11.130292,-99999.0,'11111222,11111222,99999999' 
TABS,ioos:station:wmo:42050:1,2011-12-02T08:00:00Z,28.8425,-94.2433,2.0,229.0568166,14.19184273,-99999.0,'11111222,11111222,99999999' 
TABS,ioos:station:wmo:42050:1,2011-12-02T08:30:00Z,28.8425,-94.2433,2.0,228.2449316,13.73990539,-99999.0,'11111222,11111222,99999999' 
TABS,ioos:station:wmo:42050:1,2011-12-02T09:00:00Z,28.8425,-94.2433,2.0,244.3091227,13.77131076,-99999.0,'11111222,11111222,99999999' 
TABS,ioos:station:wmo:42050:1,2011-12-02T09:30:00Z,28.8425,-94.2433,2.0,241.796786,11.89179549,-99999.0,'11111222,11111222,99999999' 
TABS,ioos:station:wmo:42050:1,2011-12-02T10:00:00Z,28.8425,-94.2433,2.0,237.21706,14.53496818,-99999.0,'11111222,11111222,99999999' 
TABS,ioos:station:wmo:42050:1,2011-12-02T10:30:00Z,28.8425,-94.2433,2.0,239.028359,13.03903754,-99999.0,'11111222,11111222,99999999' 
TABS,ioos:station:wmo:42050:1,2011-12-02T11:00:00Z,28.8425,-94.2433,2.0,257.7856087,10.06789452,-99999.0,'11111222,11111222,99999999' 
TABS,ioos:station:wmo:42050:1,2011-12-02T11:30:00Z,28.8425,-94.2433,2.0,236.9703412,13.22770577,-99999.0,'11111222,11111222,99999999' 
TABS,ioos:station:wmo:42050:1,2011-12-02T12:00:00Z,28.8425,-94.2433,2.0,254.3747129,13.99726045,-99999.0,'11111222,11111222,99999999' 
TABS,ioos:station:wmo:42050:1,2011-12-02T12:30:00Z,28.8425,-94.2433,2.0,269.5432517,11.3003584,-99999.0,'11111222,11111222,99999999' 
TABS,ioos:station:wmo:42050:1,2011-12-02T13:00:00Z,28.8425,-94.2433,2.0,252.8001428,13.93307217,-99999.0,'11111222,11111222,99999999' 
TABS,ioos:station:wmo:42050:1,2011-12-02T13:30:00Z,28.8425,-94.2433,2.0,258.8460472,14.37144391,-99999.0,'11111222,11111222,99999999' 
TABS,ioos:station:wmo:42050:1,2011-12-02T14:00:00Z,28.8425,-94.2433,2.0,269.0862476,13.80175351,-99999.0,'11111222,11111222,99999999' 
TABS,ioos:station:wmo:42050:1,2011-12-02T14:30:00Z,28.8425,-94.2433,2.0,276.0787647,16.43238266,-99999.0,'11111222,11111222,99999999' 
TABS,ioos:station:wmo:42050:1,2011-12-02T15:00:00Z,28.8425,-94.2433,2.0,264.84693,16.14524388,-99999.0,'11111222,11111222,99999999' 
TABS,ioos:station:wmo:42050:1,2011-12-02T15:30:00Z,28.8425,-94.2433,2.0,259.4244962,14.22155055,-99999.0,'11111222,11111222,99999999' 
TABS,ioos:station:wmo:42050:1,2011-12-02T16:00:00Z,28.8425,-94.2433,2.0,268.1779204,13.52683629,-99999.0,'11111222,11111222,99999999' 
TABS,ioos:station:wmo:42050:1,2011-12-02T16:30:00Z,28.8425,-94.2433,2.0,271.9879049,17.30040751,-99999.0,'11111222,11111222,99999999' 
TABS,ioos:station:wmo:42050:1,2011-12-02T17:00:00Z,28.8425,-94.2433,2.0,250.709578,16.10411128,-99999.0,'11111222,11111222,99999999' 
TABS,ioos:station:wmo:42050:1,2011-12-02T17:30:00Z,28.8425,-94.2433,2.0,249.1838163,17.81267526,-99999.0,'11111222,11111222,99999999' 
TABS,ioos:station:wmo:42050:1,2011-12-02T18:00:00Z,28.8425,-94.2433,2.0,255.7675238,19.15800094,-99999.0,'11111222,11111222,99999999' 
TABS,ioos:station:wmo:42050:1,2011-12-02T18:30:00Z,28.8425,-94.2433,2.0,252.6193598,15.63378713,-99999.0,'11111222,11111222,99999999' 
TABS,ioos:station:wmo:42050:1,2011-12-02T19:00:00Z,28.8425,-94.2433,2.0,266.1620578,12.99914613,-99999.0,'11111222,11111222,99999999' 
TABS,ioos:station:wmo:42050:1,2011-12-02T19:30:00Z,28.8425,-94.2433,2.0,272.3956634,17.94567915,-99999.0,'11111222,11111222,99999999' 
TABS,ioos:station:wmo:42050:1,2011-12-02T20:00:00Z,28.8425,-94.2433,2.0,275.5435571,15.32164808,-99999.0,'11111222,11111222,99999999' 
TABS,ioos:station:wmo:42050:1,2011-12-02T20:30:00Z,28.8425,-94.2433,2.0,282.5795608,19.74393325,-99999.0,'11111222,11111222,99999999' 
TABS,ioos:station:wmo:42050:1,2011-12-02T21:00:00Z,28.8425,-94.2433,2.0,281.4421852,17.89564472,-99999.0,'11111222,11111222,99999999' 
TABS,ioos:station:wmo:42050:1,2011-12-02T21:30:00Z,28.8425,-94.2433,2.0,277.8171803,14.99937332,-99999.0,'11111222,11111222,99999999' 
TABS,ioos:station:wmo:42050:1,2011-12-02T22:00:00Z,28.8425,-94.2433,2.0,274.5611679,17.35495318,-99999.0,'11111222,11111222,99999999' 
TABS,ioos:station:wmo:42050:1,2011-12-02T22:30:00Z,28.8425,-94.2433,2.0,278.6042934,18.98363769,-99999.0,'11111222,11111222,99999999' 
TABS,ioos:station:wmo:42050:1,2011-12-02T23:00:00Z,28.8425,-94.2433,2.0,281.1407975,20.54717742,-99999.0,'11111222,11111222,99999999' 
TABS,ioos:station:wmo:42050:1,2011-12-02T23:30:00Z,28.8425,-94.2433,2.0,285.9277818,17.49149508,-99999.0,'11111222,11111222,99999999' 
TABS,ioos:station:wmo:42050:1,2011-12-03T00:00:00Z,28.8425,-94.2433,2.0,287.4267047,17.96452059,-99999.0,'11111222,11111222,99999999' 
TABS,ioos:station:wmo:42050:1,2011-12-03T00:30:00Z,28.8425,-94.2433,2.0,283.5318372,18.71962606,-99999.0,'11111222,11111222,99999999' 
TABS,ioos:station:wmo:42050:1,2011-12-03T01:00:00Z,28.8425,-94.2433,2.0,277.3597573,15.76990805,-99999.0,'11111222,11111222,99999999' 
TABS,ioos:station:wmo:42050:1,2011-12-03T01:30:00Z,28.8425,-94.2433,2.0,277.087948,18.96491497,-99999.0,'11111222,11111222,99999999' 
TABS,ioos:station:wmo:42050:1,2011-12-03T02:00:00Z,28.8425,-94.2433,2.0,272.7156201,19.63204014,-99999.0,'11111222,11111222,99999999' 
TABS,ioos:station:wmo:42050:1,2011-12-03T02:30:00Z,28.8425,-94.2433,2.0,275.3595634,21.41360315,-99999.0,'11111222,11111222,99999999' 
TABS,ioos:station:wmo:42050:1,2011-12-03T03:00:00Z,28.8425,-94.2433,2.0,275.6228084,21.33262759,-99999.0,'11111222,11111222,99999999' 
TABS,ioos:station:wmo:42050:1,2011-12-03T03:30:00Z,28.8425,-94.2433,2.0,274.6256087,24.05834575,-99999.0,'11111222,11111222,99999999' 
TABS,ioos:station:wmo:42050:1,2011-12-03T04:00:00Z,28.8425,-94.2433,2.0,267.7311081,21.72702695,-99999.0,'11111222,11111222,99999999' 
TABS,ioos:station:wmo:42050:1,2011-12-03T04:30:00Z,28.8425,-94.2433,2.0,275.8367928,20.84806945,-99999.0,'11111222,11111222,99999999' 
TABS,ioos:station:wmo:42050:1,2011-12-03T05:00:00Z,28.8425,-94.2433,2.0,253.8010239,22.69081312,-99999.0,'11111222,11111222,99999999' 
TABS,ioos:station:wmo:42050:1,2011-12-03T05:30:00Z,28.8425,-94.2433,2.0,250.2969386,21.2968284,-99999.0,'11111222,11111222,99999999' 
TABS,ioos:station:wmo:42050:1,2011-12-03T06:00:00Z,28.8425,-94.2433,2.0,254.8655026,23.67097167,-99999.0,'11111222,11111222,99999999' 
TABS,ioos:station:wmo:42050:1,2011-12-03T06:30:00Z,28.8425,-94.2433,2.0,258.7752783,26.25213515,-99999.0,'11111222,11111222,99999999' 
TABS,ioos:station:wmo:42050:1,2011-12-03T07:00:00Z,28.8425,-94.2433,2.0,257.9072627,33.17613751,-99999.0,'11111222,11111222,99999999' 
TABS,ioos:station:wmo:42050:1,2011-12-03T07:30:00Z,28.8425,-94.2433,2.0,256.1979495,31.3964998,-99999.0,'11111222,11111222,99999999' 
TABS,ioos:station:wmo:42050:1,2011-12-03T08:00:00Z,28.8425,-94.2433,2.0,255.3193163,30.42316552,-99999.0,'11111222,11111222,99999999' 
TABS,ioos:station:wmo:42050:1,2011-12-03T08:30:00Z,28.8425,-94.2433,2.0,253.1287717,30.70134362,-99999.0,'11111222,11111222,99999999' 
TABS,ioos:station:wmo:42050:1,2011-12-03T09:00:00Z,28.8425,-94.2433,2.0,250.7282089,29.02647757,-99999.0,'11111222,11111222,99999999' 
TABS,ioos:station:wmo:42050:1,2011-12-03T09:30:00Z,28.8425,-94.2433,2.0,250.9309123,27.73170929,-99999.0,'11111222,11111222,99999999' 
TABS,ioos:station:wmo:42050:1,2011-12-03T10:00:00Z,28.8425,-94.2433,2.0,261.6639254,24.83233577,-99999.0,'11111222,11111222,99999999' 
TABS,ioos:station:wmo:42050:1,2011-12-03T10:30:00Z,28.8425,-94.2433,2.0,262.6159766,21.71002073,-99999.0,'11111222,11111222,99999999' 
TABS,ioos:station:wmo:42050:1,2011-12-03T11:00:00Z,28.8425,-94.2433,2.0,267.8961769,23.97615482,-99999.0,'11111222,11111222,99999999' 
TABS,ioos:station:wmo:42050:1,2011-12-03T11:30:00Z,28.8425,-94.2433,2.0,263.4872631,28.30262355,-99999.0,'11111222,11111222,99999999' 
TABS,ioos:station:wmo:42050:1,2011-12-03T12:00:00Z,28.8425,-94.2433,2.0,266.6705954,25.1424263,-99999.0,'11111222,11111222,99999999' 
TABS,ioos:station:wmo:42050:1,2011-12-03T12:30:00Z,28.8425,-94.2433,2.0,266.2918309,23.6595224,-99999.0,'11111222,11111222,99999999' 
TABS,ioos:station:wmo:42050:1,2011-12-03T13:00:00Z,28.8425,-94.2433,2.0,278.7578038,19.37588708,-99999.0,'11111222,11111222,99999999' 
TABS,ioos:station:wmo:42050:1,2011-12-03T13:30:00Z,28.8425,-94.2433,2.0,284.3286227,21.41617379,-99999.0,'11111222,11111222,99999999' 
TABS,ioos:station:wmo:42050:1,2011-12-03T14:00:00Z,28.8425,-94.2433,2.0,286.5073834,23.12301451,-99999.0,'11111222,11111222,99999999' 
TABS,ioos:station:wmo:42050:1,2011-12-03T14:30:00Z,28.8425,-94.2433,2.0,287.4552479,18.30277848,-99999.0,'11111222,11111222,99999999' 
TABS,ioos:station:wmo:42050:1,2011-12-03T15:00:00Z,28.8425,-94.2433,2.0,280.5680221,21.64715455,-99999.0,'11111222,11111222,99999999' 
TABS,ioos:station:wmo:42050:1,2011-12-03T15:30:00Z,28.8425,-94.2433,2.0,280.0182468,20.17763614,-99999.0,'11111222,11111222,99999999' 
TABS,ioos:station:wmo:42050:1,2011-12-03T16:00:00Z,28.8425,-94.2433,2.0,281.9577448,17.18283155,-99999.0,'11111222,11111222,99999999' 
TABS,ioos:station:wmo:42050:1,2011-12-03T16:30:00Z,28.8425,-94.2433,2.0,277.8001734,18.64247301,-99999.0,'11111222,11111222,99999999' 
TABS,ioos:station:wmo:42050:1,2011-12-03T17:00:00Z,28.8425,-94.2433,2.0,277.0717887,21.20126647,-99999.0,'11111222,11111222,99999999' 
TABS,ioos:station:wmo:42050:1,2011-12-03T17:30:00Z,28.8425,-94.2433,2.0,277.2524441,17.90321759,-99999.0,'11111222,11111222,99999999' 
TABS,ioos:station:wmo:42050:1,2011-12-03T18:00:00Z,28.8425,-94.2433,2.0,276.5728947,13.89129584,-99999.0,'11111222,11111222,99999999' 
TABS,ioos:station:wmo:42050:1,2011-12-03T18:30:00Z,28.8425,-94.2433,2.0,280.82804,16.07620913,-99999.0,'11111222,11111222,99999999' 
TABS,ioos:station:wmo:42050:1,2011-12-03T19:00:00Z,28.8425,-94.2433,2.0,276.6006245,15.57321418,-99999.0,'11111222,11111222,99999999' 
TABS,ioos:station:wmo:42050:1,2011-12-03T19:30:00Z,28.8425,-94.2433,2.0,271.9046898,15.64864211,-99999.0,'11111222,11111222,99999999' 
TABS,ioos:station:wmo:42050:1,2011-12-03T20:00:00Z,28.8425,-94.2433,2.0,272.7532344,16.44898173,-99999.0,'11111222,11111222,99999999' 
TABS,ioos:station:wmo:42050:1,2011-12-03T20:30:00Z,28.8425,-94.2433,2.0,274.5787256,20.79635785,-99999.0,'11111222,11111222,99999999' 
TABS,ioos:station:wmo:42050:1,2011-12-03T21:00:00Z,28.8425,-94.2433,2.0,274.8321576,18.16455064,-99999.0,'11111222,11111222,99999999' 
TABS,ioos:station:wmo:42050:1,2011-12-03T21:30:00Z,28.8425,-94.2433,2.0,279.3722407,21.86180459,-99999.0,'11111222,11111222,99999999' 
TABS,ioos:station:wmo:42050:1,2011-12-03T22:00:00Z,28.8425,-94.2433,2.0,279.6731304,20.59275601,-99999.0,'11111222,11111222,99999999' 
TABS,ioos:station:wmo:42050:1,2011-12-03T22:30:00Z,28.8425,-94.2433,2.0,267.7439759,26.17027703,-99999.0,'11111222,11111222,99999999' 
TABS,ioos:station:wmo:42050:1,2011-12-03T23:00:00Z,28.8425,-94.2433,2.0,278.8635873,25.31225197,-99999.0,'11111222,11111222,99999999' 
TABS,ioos:station:wmo:42050:1,2011-12-03T23:30:00Z,28.8425,-94.2433,2.0,284.1093417,32.49009849,-99999.0,'11111222,11111222,99999999' 
TABS,ioos:station:wmo:42050:1,2011-12-04T00:00:00Z,28.8425,-94.2433,2.0,283.0909846,29.97906103,-99999.0,'11111222,11111222,99999999' 
TABS,ioos:station:wmo:42050:1,2011-12-04T00:30:00Z,28.8425,-94.2433,2.0,286.194941,26.53281742,-99999.0,'11111222,11111222,99999999' 
TABS,ioos:station:wmo:42050:1,2011-12-04T01:00:00Z,28.8425,-94.2433,2.0,287.3414347,28.98755768,-99999.0,'11111222,11111222,99999999' 
TABS,ioos:station:wmo:42050:1,2011-12-04T01:30:00Z,28.8425,-94.2433,2.0,278.4719954,26.81255117,-99999.0,'11111222,11111222,99999999' 
TABS,ioos:station:wmo:42050:1,2011-12-04T02:00:00Z,28.8425,-94.2433,2.0,281.2147474,25.86383189,-99999.0,'11111222,11111222,99999999' 
TABS,ioos:station:wmo:42050:1,2011-12-04T02:30:00Z,28.8425,-94.2433,2.0,275.3340465,25.71132241,-99999.0,'11111222,11111222,99999999' 
TABS,ioos:station:wmo:42050:1,2011-12-04T03:00:00Z,28.8425,-94.2433,2.0,276.5068155,25.50426827,-99999.0,'11111222,11111222,99999999' 
TABS,ioos:station:wmo:42050:1,2011-12-04T03:30:00Z,28.8425,-94.2433,2.0,271.0134014,25.45397808,-99999.0,'11111222,11111222,99999999' 
TABS,ioos:station:wmo:42050:1,2011-12-04T04:00:00Z,28.8425,-94.2433,2.0,268.1910943,24.08199535,-99999.0,'11111222,11111222,99999999' 
TABS,ioos:station:wmo:42050:1,2011-12-04T04:30:00Z,28.8425,-94.2433,2.0,263.9238329,22.01365485,-99999.0,'11111222,11111222,99999999' 
TABS,ioos:station:wmo:42050:1,2011-12-04T05:00:00Z,28.8425,-94.2433,2.0,259.4230173,22.06487254,-99999.0,'11111222,11111222,99999999' 
TABS,ioos:station:wmo:42050:1,2011-12-04T05:30:00Z,28.8425,-94.2433,2.0,256.1680784,23.75894147,-99999.0,'11111222,11111222,99999999' 
TABS,ioos:station:wmo:42050:1,2011-12-04T06:00:00Z,28.8425,-94.2433,2.0,251.032531,25.53649349,-99999.0,'11111222,11111222,99999999' 
TABS,ioos:station:wmo:42050:1,2011-12-04T06:30:00Z,28.8425,-94.2433,2.0,253.1836348,25.85561641,-99999.0,'11111222,11111222,99999999' 
TABS,ioos:station:wmo:42050:1,2011-12-04T07:00:00Z,28.8425,-94.2433,2.0,238.032517,22.23134049,-99999.0,'11111222,11111222,99999999' 
TABS,ioos:station:wmo:42050:1,2011-12-04T07:30:00Z,28.8425,-94.2433,2.0,249.0161042,21.33485411,-99999.0,'11111222,11111222,99999999' 
TABS,ioos:station:wmo:42050:1,2011-12-04T08:00:00Z,28.8425,-94.2433,2.0,253.5064626,19.97176507,-99999.0,'11111222,11111222,99999999' 
TABS,ioos:station:wmo:42050:1,2011-12-04T08:30:00Z,28.8425,-94.2433,2.0,263.6429577,19.23827695,-99999.0,'11111222,11111222,99999999' 
TABS,ioos:station:wmo:42050:1,2011-12-04T09:00:00Z,28.8425,-94.2433,2.0,267.1309548,18.38303566,-99999.0,'11111222,11111222,99999999' 
TABS,ioos:station:wmo:42050:1,2011-12-04T09:30:00Z,28.8425,-94.2433,2.0,270.5650382,19.28093618,-99999.0,'11111222,11111222,99999999' 
TABS,ioos:station:wmo:42050:1,2011-12-04T10:00:00Z,28.8425,-94.2433,2.0,275.7082877,21.01419044,-99999.0,'11111222,11111222,99999999' 
TABS,ioos:station:wmo:42050:1,2011-12-04T10:30:00Z,28.8425,-94.2433,2.0,282.3730808,20.30151226,-99999.0,'11111222,11111222,99999999' 
TABS,ioos:station:wmo:42050:1,2011-12-04T11:00:00Z,28.8425,-94.2433,2.0,277.0408965,30.26822922,-99999.0,'11111222,11111222,99999999' 
TABS,ioos:station:wmo:42050:1,2011-12-04T11:30:00Z,28.8425,-94.2433,2.0,281.176422,28.53105326,-99999.0,'11111222,11111222,99999999' 
TABS,ioos:station:wmo:42050:1,2011-12-04T12:00:00Z,28.8425,-94.2433,2.0,279.2811946,29.57717025,-99999.0,'11111222,11111222,99999999' 
TABS,ioos:station:wmo:42050:1,2011-12-04T12:30:00Z,28.8425,-94.2433,2.0,293.3281553,29.69765142,-99999.0,'11111222,11111222,99999999' 
TABS,ioos:station:wmo:42050:1,2011-12-04T13:00:00Z,28.8425,-94.2433,2.0,292.9181763,28.40192247,-99999.0,'11111222,11111222,99999999' 
TABS,ioos:station:wmo:42050:1,2011-12-04T13:30:00Z,28.8425,-94.2433,2.0,293.4349485,26.77886107,-99999.0,'11111222,11111222,99999999' 
TABS,ioos:station:wmo:42050:1,2011-12-04T14:00:00Z,28.8425,-94.2433,2.0,302.2924502,24.78306075,-99999.0,'11111222,11111222,99999999' 
TABS,ioos:station:wmo:42050:1,2011-12-04T14:30:00Z,28.8425,-94.2433,2.0,298.4153318,28.53815691,-99999.0,'11111222,11111222,99999999' 
TABS,ioos:station:wmo:42050:1,2011-12-04T15:00:00Z,28.8425,-94.2433,2.0,301.6987314,23.54183085,-99999.0,'11111222,11111222,99999999' 
TABS,ioos:station:wmo:42050:1,2011-12-04T15:30:00Z,28.8425,-94.2433,2.0,301.4431545,20.51194774,-99999.0,'11111222,11111222,99999999' 
TABS,ioos:station:wmo:42050:1,2011-12-04T16:00:00Z,28.8425,-94.2433,2.0,289.2616488,19.73466493,-99999.0,'11111222,11111222,99999999' 